Ely, MN

6:44 PM CST on February 23, 2017 (GMT -0600)
Ely Municipal

Weather History for KELO - August, 2012

Change the Weather History Date:

Thursday, August 9, 2012

  Actual Average Record
Temperature  
Mean Temperature 58 °F -  
Max Temperature 66 °F 72 °F 84 °F (2010)
Min Temperature 51 °F 51 °F 46 °F (1996)
Degree Days  
Heating Degree Days 6    
Growing Degree Days 8 (Base 50)    
Moisture  
Dew Point 53 °F    
Average Humidity 79    
Maximum Humidity 100    
Minimum Humidity 52    
Precipitation  
Precipitation 0.00 in - - ()
Sea Level Pressure  
Sea Level Pressure 30.09 in    
Wind  
Wind Speed 5 mph (NE)    
Max Wind Speed 14 mph    
Max Gust Speed 20 mph    
Visibility 10 miles    
Events Rain , Thunderstorm    
Averages and records for this station are not official NWS values.
T = Trace of Precipitation, MM = Missing Value Source: NWS Daily Summary

Daily Weather History Graph

Daily Weather History Graph

Search for Another Location

Airport or City:

Trip Planner

Search our weather history database for the weather conditions in past years. The results will help you decide how hot, cold, wet, or windy it might be!

Date:

Astronomy

Aug. 09, 2012 Rise Set
Actual Time 5:55 AM CDT 8:29 PM CDT
Civil Twilight 5:20 AM CDT 9:04 PM CDT
Nautical Twilight 4:36 AM CDT 9:47 PM CDT
Astronomical Twilight 3:44 AM CDT 10:38 PM CDT
Moon 11:40 PM CDT (8/9) 2:17 PM CDT (8/9)
Length of Visible Light 15h 43m
Length of Day
14h 34m
Waning Gibbous, 51% of the Moon is Illuminated
Aug 9
Waning Gibbous
Aug 9
Last Quarter
Aug 17
New
Aug 24
First Quarter
Aug 31
Full

Hourly Weather History & Observations

Time (CDT) Temp. Dew Point Humidity Pressure Visibility Wind Dir Wind Speed Gust Speed Precip Events Conditions
12:12 AM 60.8 °F 59.0 °F 94% 30.01 in 10.0 mi West 3.5 mph - N/A   Clear
12:33 AM 60.8 °F 57.2 °F 88% 30.01 in 10.0 mi WSW 4.6 mph - N/A   Clear
12:52 AM 60.8 °F 57.2 °F 88% 30.01 in 10.0 mi SW 4.6 mph - N/A   Scattered Clouds
1:13 AM 60.8 °F 57.2 °F 88% 30.00 in 10.0 mi SW 4.6 mph - N/A   Scattered Clouds
1:32 AM 60.8 °F 57.2 °F 88% 30.00 in 10.0 mi SW 6.9 mph - N/A   Scattered Clouds
1:53 AM 60.8 °F 57.2 °F 88% 29.99 in 10.0 mi WSW 4.6 mph - N/A   Mostly Cloudy
2:13 AM 60.8 °F 57.2 °F 88% 29.98 in 10.0 mi WSW 4.6 mph - N/A   Mostly Cloudy
2:32 AM 60.8 °F 57.2 °F 88% 30.00 in 10.0 mi West 4.6 mph - N/A   Mostly Cloudy
2:53 AM 60.8 °F 57.2 °F 88% 29.99 in 10.0 mi West 3.5 mph - N/A   Overcast
3:13 AM 59.0 °F 57.2 °F 94% 29.99 in 10.0 mi NW 3.5 mph - N/A   Scattered Clouds
3:32 AM 59.0 °F 57.2 °F 94% 29.98 in 10.0 mi Calm Calm - N/A   Clear
3:53 AM 57.2 °F 57.2 °F 100% 29.99 in 7.0 mi Calm Calm - N/A   Clear
4:13 AM 57.2 °F 55.4 °F 94% 29.99 in 10.0 mi Calm Calm - N/A   Scattered Clouds
4:32 AM 57.2 °F 55.4 °F 94% 29.98 in 10.0 mi Calm Calm - N/A   Mostly Cloudy
4:53 AM 57.2 °F 55.4 °F 94% 29.99 in 10.0 mi Calm Calm - N/A   Scattered Clouds
5:13 AM 55.4 °F 55.4 °F 100% 29.99 in 10.0 mi Calm Calm - N/A Thunderstorm Mostly Cloudy
5:32 AM 55.4 °F 53.6 °F 94% 30.00 in 10.0 mi NNW 3.5 mph - N/A Thunderstorm Mostly Cloudy
5:53 AM 57.2 °F 55.4 °F 94% 30.01 in 10.0 mi North 4.6 mph - N/A   Mostly Cloudy
6:13 AM 57.2 °F 55.4 °F 94% 30.01 in 10.0 mi North 4.6 mph - N/A   Overcast
6:32 AM 57.2 °F 55.4 °F 94% 30.02 in 10.0 mi North 5.8 mph - N/A   Overcast
6:53 AM 57.2 °F 55.4 °F 94% 30.03 in 10.0 mi North 3.5 mph - N/A   Overcast
7:13 AM 57.2 °F 55.4 °F 94% 30.03 in 10.0 mi North 3.5 mph - N/A   Overcast
7:33 AM 57.2 °F 55.4 °F 94% 30.03 in 10.0 mi North 5.8 mph - N/A   Mostly Cloudy
7:53 AM 57.2 °F 55.4 °F 94% 30.03 in 10.0 mi Calm Calm - N/A   Scattered Clouds
8:12 AM 60.8 °F 57.2 °F 88% 30.02 in 10.0 mi Calm Calm - N/A   Mostly Cloudy
8:33 AM 62.6 °F 55.4 °F 77% 30.02 in 10.0 mi NNE 8.1 mph - N/A   Mostly Cloudy
8:53 AM 62.6 °F 55.4 °F 77% 30.03 in 10.0 mi NE 6.9 mph - N/A   Mostly Cloudy
9:12 AM 62.6 °F 53.6 °F 72% 30.03 in 10.0 mi NE 8.1 mph - N/A   Scattered Clouds
9:33 AM 62.6 °F 53.6 °F 72% 30.03 in 10.0 mi NE 10.4 mph 16.1 mph N/A   Scattered Clouds
9:53 AM 60.8 °F 51.8 °F 72% 30.04 in 10.0 mi NE 9.2 mph 19.6 mph N/A   Mostly Cloudy
10:12 AM 60.8 °F 53.6 °F 77% 30.05 in 10.0 mi ENE 9.2 mph - N/A   Overcast
10:33 AM 62.6 °F 53.6 °F 72% 30.06 in 10.0 mi ENE 6.9 mph - N/A   Overcast
10:53 AM 62.6 °F 51.8 °F 68% 30.06 in 10.0 mi ENE 10.4 mph 18.4 mph N/A   Overcast
11:13 AM 62.6 °F 51.8 °F 68% 30.07 in 10.0 mi ENE 9.2 mph - N/A   Overcast
11:33 AM 62.6 °F 51.8 °F 68% 30.08 in 10.0 mi NE 9.2 mph - N/A   Overcast
11:52 AM 64.4 °F 51.8 °F 64% 30.08 in 10.0 mi NE 6.9 mph - N/A   Overcast
12:13 PM 62.6 °F 51.8 °F 68% 30.09 in 10.0 mi ENE 9.2 mph 17.3 mph N/A   Mostly Cloudy
12:33 PM 62.6 °F 51.8 °F 68% 30.09 in 10.0 mi NE 11.5 mph 18.4 mph N/A   Mostly Cloudy
12:52 PM 60.8 °F 53.6 °F 77% 30.11 in 10.0 mi ENE 12.7 mph 16.1 mph N/A   Overcast
1:13 PM 59.0 °F 53.6 °F 82% 30.12 in 5.0 mi ENE 10.4 mph 17.3 mph N/A Rain , Thunderstorm Rain
1:33 PM 60.8 °F 55.4 °F 82% 30.11 in 10.0 mi ENE 9.2 mph 17.3 mph N/A Rain Light Rain
1:52 PM 57.2 °F 53.6 °F 88% 30.12 in 10.0 mi East 11.5 mph - N/A   Mostly Cloudy
2:13 PM 62.6 °F 53.6 °F 72% 30.12 in 10.0 mi East 10.4 mph 18.4 mph N/A   Mostly Cloudy
2:33 PM 62.6 °F 50.0 °F 63% 30.13 in 10.0 mi ENE 13.8 mph 19.6 mph N/A   Overcast
2:52 PM 62.6 °F 50.0 °F 63% 30.13 in 10.0 mi ENE 8.1 mph - N/A   Overcast
3:13 PM 64.4 °F 50.0 °F 59% 30.13 in 10.0 mi ENE 11.5 mph 17.3 mph N/A   Mostly Cloudy
3:33 PM 64.4 °F 51.8 °F 64% 30.13 in 10.0 mi ENE 11.5 mph - N/A   Mostly Cloudy
3:52 PM 66.2 °F 48.2 °F 52% 30.13 in 10.0 mi ENE 8.1 mph - N/A   Mostly Cloudy
4:13 PM 62.6 °F 51.8 °F 68% 30.14 in 10.0 mi North 5.8 mph - N/A   Overcast
4:33 PM 62.6 °F 51.8 °F 68% 30.15 in 10.0 mi NNE 5.8 mph - N/A   Overcast
4:52 PM 64.4 °F 48.2 °F 56% 30.15 in 10.0 mi NE 10.4 mph - N/A   Overcast
5:13 PM 64.4 °F 50.0 °F 59% 30.15 in 10.0 mi NE 5.8 mph - N/A   Overcast
5:33 PM 64.4 °F 46.4 °F 52% 30.15 in 10.0 mi NE 11.5 mph 16.1 mph N/A   Overcast
5:53 PM 66.2 °F 48.2 °F 52% 30.15 in 10.0 mi NE 8.1 mph - N/A   Mostly Cloudy
6:13 PM 62.6 °F 50.0 °F 63% 30.15 in 10.0 mi NE 10.4 mph - N/A   Mostly Cloudy
6:32 PM 62.6 °F 48.2 °F 59% 30.16 in 10.0 mi NE 8.1 mph - N/A   Mostly Cloudy
6:53 PM 64.4 °F 50.0 °F 59% 30.16 in 10.0 mi NE 8.1 mph - N/A   Mostly Cloudy
7:13 PM 62.6 °F 50.0 °F 63% 30.16 in 10.0 mi NE 8.1 mph - N/A   Mostly Cloudy
7:32 PM 62.6 °F 50.0 °F 63% 30.17 in 10.0 mi ENE 4.6 mph - N/A   Mostly Cloudy
7:53 PM 62.6 °F 51.8 °F 68% 30.17 in 10.0 mi NE 5.8 mph - N/A   Scattered Clouds
8:11 PM 60.8 °F 51.8 °F 72% 30.18 in 10.0 mi Calm Calm - N/A   Scattered Clouds
8:33 PM 60.8 °F 51.8 °F 72% 30.19 in 10.0 mi Calm Calm - N/A   Scattered Clouds
8:52 PM 57.2 °F 51.8 °F 82% 30.19 in 10.0 mi Calm Calm - N/A   Clear
9:13 PM 55.4 °F 51.8 °F 88% 30.19 in 10.0 mi Calm Calm - N/A   Clear
9:33 PM 53.6 °F 51.8 °F 94% 30.19 in 10.0 mi Calm Calm - N/A   Clear
9:52 PM 53.6 °F 50.0 °F 88% 30.19 in 10.0 mi Calm Calm - N/A   Clear
10:13 PM 53.6 °F 50.0 °F 88% 30.20 in 10.0 mi Calm Calm - N/A   Scattered Clouds
10:33 PM 51.8 °F 50.0 °F 94% 30.20 in 10.0 mi Calm Calm - N/A   Mostly Cloudy
10:52 PM 51.8 °F 50.0 °F 94% 30.20 in 10.0 mi Calm Calm - N/A   Overcast
11:13 PM 51.8 °F 50.0 °F 94% 30.20 in 10.0 mi Calm Calm - N/A   Overcast
11:33 PM 53.6 °F 51.8 °F 94% 30.19 in 10.0 mi Calm Calm - N/A   Mostly Cloudy
11:53 PM 51.8 °F 48.2 °F 88% 30.19 in 10.0 mi Calm Calm - N/A   Scattered Clouds